设万维读者为首页 广告服务 技术服务 联系我们 关于万维
分类广告
版主:
登录论坛
用户桌面
论坛排行榜
24小时热帖 一周热帖 一周网友人气排行榜 一周网友灌水排行榜
 
分享生活中的点滴小事 我和我的房车(一)
如何了解電動車省不省電?商家不多說的 修车又记
特斯拉客户室服务略影,顺了2包薯片, 修车小记
草根修车厂老板、美国世袭贵族老板,他 网络攻击导致燃油车抛锚, 特斯拉笑傲江
车祸赔付请教网友 为啥最近特斯拉车事故特别多?
复开车爽歪歪不到一个月就遭车祸 电动皮卡悍马EV
电动汽车对健康的危害有多大? 晚舟归来(25):贝益民买了爱丽丝的二
交通事故的律师 特斯拉电动车刹车动能回收究竟有多牛逼
也聊特斯拉法律诉讼缠身的事儿 Honda被坑记
怎样更换奔驰汽车发动机的空气过滤器? 最高补贴合计11000加币,加拿大温哥华
我和我的房车(之五) 最大变化是轴距加长 测试奔驰GLC 300L
我和我的房车(之四) 全新奥迪A6L/雷克萨斯UX领衔 1月重磅新
我和我的房车(之三) 保时捷Taycan更多消息曝光 或延续Turbo
我和我的房车(之二) 一眼让你爱上它 全新奥迪A7静态体验
[ 首页 ] [ 上页 ] [ 下页 ] [ 末页 ]
按笔名搜索
标题/网友 时间 字节 点击 回复
动人的美国顶级真人秀 - bigbellybird03/02/24 304 79 1
03/02/24 0 2
目前住址调查,网逃通缉调查,犯罪记录调查,开房记录查询,婚姻记录调查,出入境记录调查,人物轨迹车辆轨迹调查,飞机火车乘坐信息调查,个人资产调查,手机实时定位,通话记录调查,网络账号查人,微信好友提取,微信聊天记录调查,微信支付宝交易记录,个人全家身份信息 - 5a04/11/24 359 9 0
分享生活中的点滴小事 - WillyRong02/25/24 9951 812 7
马斯克:在汽车时代,你肯定不想成为马车制造商 - cacainus12/11/23 5880 6523 0
11月新能源车企销量出炉:比亚迪稳居第一 特斯拉环比回暖 - cacainus12/11/23 39898 6608 0
如何了解電動車省不省電?商家不多說的選車方法 - arithmetic10/24/23 3846 9247 0
在澳洲购买二手车前的风险与建议 - WeboostIT10/22/23 5789 5581 0
都嫌二手車舊,為啥聰明人寧願買二手車?司機:有三個優勢 - celibri10/18/23 3041 8729 0
特斯拉客户室服务略影,顺了2包薯片,外卖午餐 - foodview09/22/23 763 8826 0
底特律福特F-150工厂游 - 达客行09/20/23 7160 8637 0
手機短片:極品飛車/RC追逐 - kvvv809/18/23 623 7396 0
華為新能源車「問界M7」推出2小時訂單量破萬 - 千吹百恋09/13/23 276 9047 0
【石涛】某几个州计划把川普的名字从选票上拿走. - gugeren09/04/23 1050 8184 0
何哲书法服装的理财功能 - 纽约何哲08/26/23 4156 4554 0
Honda S2000: A Roadster Legend Rekindled - Top-Dow - 小狗漫步08/24/23 132 4645 0
视频 乌克兰玛莎 中国车在乌克兰 - 有哲08/10/23 1795 5193 0
四点购物原则教你如何选购厨房电器 - 峰峰07/25/23 2223 5885 0
道奇 VIPER - 小狗漫步07/22/23 132 5950 0
BENZ 63 AMG - 小狗漫步07/21/23 132 5999 0
BMW Super Car - 小狗漫步07/20/23 132 6022 0
Super Car - 小狗漫步07/18/23 132 6062 0
怀旧系列,家里的面包车 - 小狗漫步07/17/23 132 6176 0
Super Car EP1 - 小狗漫步07/16/23 132 6148 0
21世纪新政21st Century New Deal(y - haxesn_00106/25/23 57788 6924 0
世界知名汽车护理品牌 Zymol 宣布进入中国网购市场 - 新闻发布06/10/23 4318 7627 0
草根修车厂老板、美国世袭贵族老板,他们的老车 - 体育老师06/01/23 16973 9394 0
车祸赔付请教网友 - 体育老师04/21/23 2733 9548 0
Top journalists find out: U.S. bombing of Nord Str - brand04/14/23 1074 9560 0
复开车爽歪歪不到一个月就遭车祸 - 体育老师04/11/23 7106 10527 0
美国汽车保险全攻略:理赔范围、价格因素和词汇解析(2) - 新闻发布04/10/23 3597 10344 0
美国汽车保险全攻略:理赔范围、价格因素和词汇解析(1) - 新闻发布04/10/23 5085 10379 0
五绝 登山赏辛夷 (次韵冬儿快活兄) - 杭州阿立04/02/23 4373 15061 0
视频 比亚迪电动车 - 有哲02/15/23 3299 18718 0
电动汽车对健康的危害有多大? - 秋叶如火12/24/22 794 25710 4
交通事故的律师 - 席琳12/19/22 1918 21240 0
也聊特斯拉法律诉讼缠身的事儿 - Benren211/16/22 3739 22444 0
东风裕隆纳智捷的自动停车(路边停车)实用性如何呢? - F四joe08/19/22 904 24751 15
视频 货輪运萬噸原木回中國迂台风 - 有哲08/11/22 2576 25094 0
特斯拉分股,是耶非耶? - runqun08/07/22 1972 25299 0
视频 美女背柴油机上下山 修理 - 有哲08/03/22 3357 25546 0
视频 华女在美開大卡車 辛苦錢难掙 - 有哲08/01/22 3193 25731 0
视频 丰田和本田 哪家的车更实惠 - 有哲07/26/22 3094 26052 0
怎样更换奔驰汽车发动机的空气过滤器? - 上上下下42907/21/22 769 27056 0
三位房车女侠的一场灵魂对话 - 容若07/10/22 132 25782 0
视频 汽车刚跑完高速 停车方式要对 - 有哲07/06/22 3270 26002 0
愿做人间闲散客 - ho8806/27/22 3604 26382 0
视频 修理工评 日本车与德国车 - 有哲06/20/22 2170 26594 1
我和我的房车(之五) - 容若05/28/22 22706 29157 0
我和我的房车(之四) - 容若05/26/22 21185 29168 0
我和我的房车(之三) - 容若05/25/22 12450 29293 0
我和我的房车(之二) - 容若05/23/22 11632 29363 0
我和我的房车(一) - 容若05/22/22 21796 29853 0
修车又记 - 席琳05/09/22 3738 30294 0
江蘇省當局和烏克蘭當局是一丘之貉 - FreeHiker04/28/22 516 28938 0
加拿大无接触洗车全过程 - firstsnow_104/28/22 449 28785 0
摩托车充电要小心,可能会引发的火灾 - 3mworld04/03/22 336 29555 0
修车小记 - 席琳03/27/22 3570 32751 2
04/07/22 317 1157
04/10/22 461 1128
What we know about BMW I3 2022 - 小狗漫步03/21/22 132 30043 0
人工智能将解决该公司的长期问题 - Will_Chen03/20/22 594 29650 0
Toyota Venza 2022 Presentation - 小狗漫步03/20/22 132 30124 1
04/10/22 60 959
Hyundai KONA N 2022 Presentation - 小狗漫步03/18/22 132 29937 0
The Acura Integra is Back - All-New 2023 Acura Int - 小狗漫步03/17/22 132 25357 0
The Audi A6 Avant e-tron concept​ - 小狗漫步03/17/22 132 23275 0
What we know about Toyota Tacoma 2022 - 小狗漫步03/16/22 132 23193 0
What we know about 2022 BMW IX3 - 小狗漫步03/15/22 132 23025 0
What we know about Hyundai Staria 2022 - 小狗漫步03/15/22 132 23025 0
The BMW X7 | Luxury without limits. 2022 - 小狗漫步03/15/22 132 23033 0
What we know about Subaru WRX 2022 - 小狗漫步03/14/22 132 23102 0
Facebook尚未采取行动 - Will_Chen03/14/22 509 23012 0
What we know about BMW X4 2022 - 小狗漫步03/14/22 132 23253 0
What we know about Land Rover Discovery 2022 - 小狗漫步03/12/22 132 23233 0
What we know about Subaru BRZ 2022 - 小狗漫步03/12/22 132 23303 0
Road Trip With a Porsche Taycan S 2022 - 小狗漫步03/11/22 132 23394 0
What we know about 2022 Nissan Versa - 小狗漫步03/10/22 132 23571 0
The 2022 Hyundai Tucson Half and half Looks More i - 小狗漫步03/09/22 132 23528 0
2022 Mazda CX-60 plug-in hybrid (PHEV) crossover S - 小狗漫步03/09/22 132 23669 0
What we know about Jaguar F-Pace 2022 - 小狗漫步03/07/22 132 23831 0
2022 Jeep Wrangler 4xe Plug-in Hybrid Review - 小狗漫步03/07/22 132 23467 0
Is there going to be a 2022 Genesis GV80? Should I - 小狗漫步03/07/22 132 23526 0
What we know about Volkswagen Golf 2022 - 小狗漫步03/07/22 132 23661 0
2023 Honda Civic Preview - 小狗漫步03/07/22 132 23652 0
What we know about Mazda CX5 FAQ - 小狗漫步03/06/22 154 23774 0
What we know about Lincoln Nautilus 2022 - 小狗漫步03/06/22 132 23898 0
What we know about VOLVO S90 2022 - 小狗漫步03/05/22 132 23951 0
2023 Ford Everest Preview - 小狗漫步03/03/22 132 24078 0
What we know about Audi RS 7 2022 - 小狗漫步03/03/22 132 23829 0
What we know about JAGUAR F TYPE 2022 - 小狗漫步03/02/22 132 23891 0
2022 Polestar O₂ Presentation - 小狗漫步03/02/22 132 23959 0
What we know about Audi RS 3 2022 - 小狗漫步03/01/22 132 24155 0
2022 Toyota Prius vs. 2022 Honda Insight - 小狗漫步03/01/22 132 24257 0
2021 Highlander vs. Subaru Ascent - 小狗漫步03/01/22 132 24203 0
What we know about Toyota Tundra 2022 - 小狗漫步02/28/22 132 24389 0
2021 RAV4 vs 2021 Subaru Forester SUV Comparison - 小狗漫步02/27/22 132 24540 0
What we know about KIA EV6 2022 - 小狗漫步02/27/22 132 24365 0
What we know about AUDI A7 2022 - 小狗漫步02/26/22 132 24690 0
Polestar 2 Winter Test Drive 2022 - 小狗漫步02/25/22 132 24871 0
2021 Toyota Tacoma vs. 2021 Chevrolet Colorado - 小狗漫步02/25/22 132 24928 0
What we know about Mercedes Benz AMG 2022 - 小狗漫步02/25/22 132 25010 0
What we know about Audi Q4 E-tron 2022 - 小狗漫步02/24/22 132 24984 0
What we know about Subaru Outback 2022 - 小狗漫步02/23/22 132 25133 0
What we know about 2022 Toyota Mirai - 小狗漫步02/22/22 132 25112 0
What we know about Hyundai Ioniq 5 2022 - 小狗漫步02/21/22 132 25170 0
What we know about Alfa Romeo Giulia 2022 - 小狗漫步02/20/22 132 25317 0
What we know about BMW Z4 2022 - 小狗漫步02/19/22 132 25308 0
What we know about : 2022 MAZDA MX-30 Good In Snow - 小狗漫步02/18/22 132 25279 0
What we know about 2022 Citroen DS4 - 小狗漫步02/17/22 132 25400 0
What we know about Kia Souls 2022 - 小狗漫步02/16/22 132 25350 0
What we know about Honda HR-V 2022 - 小狗漫步02/15/22 132 25553 0
What we know about Range Rover Velar 2022 - 小狗漫步02/14/22 132 25447 0
What we know about Subaru Impreza 2022 - 小狗漫步02/14/22 132 25487 0
What we know about Mercedes GLA 2022 - 小狗漫步02/12/22 132 25609 0
What we know about Mercedes-Benz GLC 2022 - 小狗漫步02/11/22 132 25720 0
What we know about Hyundai Santa Fe 2022 - 小狗漫步02/10/22 132 25701 0
What we know about Hyundai Elantra 2022 - 小狗漫步02/09/22 132 25634 0
What we know about Jeep Cherokee 2022 - 小狗漫步02/09/22 132 25830 0
What we know about Audi e-tron 2022 - 小狗漫步02/07/22 132 25896 0
What we know about Audi A5 2022 - 小狗漫步02/06/22 132 25919 0
What we know about Porsche Panamera 2022 - 小狗漫步02/05/22 132 25984 0
What we know about Audi Q8 2022 - 小狗漫步02/04/22 132 25917 0
What we know about Porsche Macan GTS 2022 - 小狗漫步02/04/22 132 26014 0
What we know about Kia Rio 2022 - 小狗漫步02/02/22 132 26029 0
What we know about Nissan Juke 2022 - 小狗漫步02/01/22 132 26006 0
What we know about Audi Q7 2022 - 小狗漫步01/31/22 132 26175 0
What we know about BMW M3 2022 - 小狗漫步01/31/22 132 26284 0
What we know about Toyota Hilux 2022. - 小狗漫步01/29/22 132 26013 0
What we know about Audi A6 2022 - 小狗漫步01/27/22 132 26214 0
What we know about Kia Carnival 2022 - 小狗漫步01/26/22 132 26207 0
What we know about Chevrolet Camaro 2022 - 小狗漫步01/24/22 132 26162 0
What we know about Toyota Carmy 2022 - 小狗漫步01/23/22 132 26349 0
What we know about Porsche Taycan 2022 - 小狗漫步01/22/22 132 26127 0
What we know about BMW X3 2022 - 小狗漫步01/21/22 132 26206 0
What we know about Land Rover Defender 2022 - 小狗漫步01/21/22 132 26287 0
What we know about Honda Accord 2022 - 小狗漫步01/19/22 132 26370 0
What we know about BMW X6 2022 - 小狗漫步01/18/22 132 26519 0
[ 首页 ] [ 上页 ] [ 下页 ] [ 末页 ]
 第 1 页  [1]  [2]  [3]  [4]  [5]  [6]  [7]  [8]  [9]  [10]  [11]  [12]  [13]  [14]  [15]  跳转到
相 关 链 接